Weather History for Corpus Christi, TX

Change the Weather History Date:

Wednesday, January 16, 2013

  Actual Average Record
Temperature  
Mean Temperature 49 °F 57 °F  
Max Temperature 61 °F 67 °F 83 °F (1978)
Min Temperature 36 °F 47 °F 16 °F (1888)
Degree Days  
Heating Degree Days 16 9  
Month to date heating degree days 157 144  
Since 1 July heating degree days 332 495  
Cooling Degree Days 0 1  
Month to date cooling degree days 11 16  
Year to date cooling degree days 11 16  
Moisture  
Dew Point 24 °F    
Average Humidity 44    
Maximum Humidity 70    
Minimum Humidity 17    
Precipitation  
Precipitation 0.00 in 0.05 in 1.46 in (1934)
Month to date precipitation 1.25 0.81  
Year to date precipitation 1.25 0.81  
Snow  
Snow 0.00 in - - ()
Month to date snowfall 0.0  
Since 1 July snowfall 0.0  
Snow Depth 0.00 in    
Sea Level Pressure  
Sea Level Pressure 30.31 in    
Wind  
Wind Speed 13 mph (NW)    
Max Wind Speed 28 mph    
Max Gust Speed 37 mph    
Visibility 10 miles    
Events      
T = Trace of Precipitation, MM = Missing Value Source: NWS Daily Summary

Daily Weather History Graph

Daily Weather History Graph

Search for Another Location

Airport:

Trip Planner

Search our weather history database for the weather conditions in past years. The results will help you decide how hot, cold, wet, or windy it might be!

Date:

Astronomy

Jan. 16, 2013 Rise Set
Actual Time 7:22 AM CST 5:58 PM CST
Civil Twilight 6:56 AM CST 6:23 PM CST
Nautical Twilight 6:28 AM CST 6:51 PM CST
Astronomical Twilight 5:59 AM CST 7:20 PM CST
Moon 10:31 AM CST (1/16) 11:15 PM CST (1/16)
Length of Visible Light 11h 26m
Length of Day
10h 36m
Waxing Crescent, 28% of the Moon is Illuminated
Jan 16
Waxing Crescent
Jan 18
First Quarter
Jan 26
Full
Feb 3
Last Quarter
Feb 10
New

Hourly Weather History & Observations

Time (CST) Temp. Windchill Dew Point Humidity Pressure Visibility Wind Dir Wind Speed Gust Speed Precip Events Conditions
1:51 AM 43.0 °F 35.7 °F 30.9 °F 62% 30.26 in 10.0 mi NNW 15.0 mph - N/A   Overcast
3:51 AM 42.1 °F 34.9 °F 30.9 °F 65% 30.28 in 10.0 mi NNW 13.8 mph - N/A   Overcast
4:51 AM 41.0 °F 33.1 °F 28.9 °F 62% 30.29 in 10.0 mi NNW 15.0 mph - N/A   Mostly Cloudy
5:51 AM 39.0 °F 31.0 °F 28.0 °F 65% 30.32 in 10.0 mi NW 13.8 mph - N/A   Partly Cloudy
6:51 AM 37.0 °F 29.8 °F 26.1 °F 65% 30.34 in 10.0 mi NNW 10.4 mph - N/A   Partly Cloudy
7:51 AM 37.4 °F 30.3 °F 26.6 °F 65% 30.37 in 10.0 mi NW 10.4 mph - N/A   Partly Cloudy
8:51 AM 41.0 °F 33.5 °F 27.0 °F 57% 30.39 in 10.0 mi NW 13.8 mph - N/A   Partly Cloudy
9:51 AM 46.0 °F 39.3 °F 23.0 °F 40% 30.40 in 10.0 mi NNW 16.1 mph - N/A   Clear
10:51 AM 48.9 °F - 26.1 °F 41% 30.38 in 10.0 mi NW 15.0 mph - N/A   Clear
11:51 AM 52.0 °F - 27.0 °F 38% 30.35 in 10.0 mi NW 13.8 mph - N/A   Clear
12:51 PM 55.9 °F - 24.1 °F 29% 30.30 in 10.0 mi NW 20.7 mph 26.5 mph N/A   Clear
1:51 PM 57.9 °F - 21.9 °F 25% 30.26 in 10.0 mi NW 17.3 mph 25.3 mph N/A   Clear
2:51 PM 59.0 °F - 17.1 °F 20% 30.24 in 10.0 mi NW 23.0 mph 34.5 mph N/A   Clear
3:51 PM 60.1 °F - 16.0 °F 18% 30.23 in 10.0 mi NW 23.0 mph 27.6 mph N/A   Clear
4:51 PM 59.0 °F - 16.0 °F 19% 30.23 in 10.0 mi WNW 18.4 mph 31.1 mph N/A   Clear
5:51 PM 55.9 °F - 18.0 °F 23% 30.25 in 10.0 mi NW 16.1 mph - N/A   Partly Cloudy
6:51 PM 48.0 °F - 21.9 °F 36% 30.28 in 10.0 mi NW 9.2 mph - N/A   Partly Cloudy
7:51 PM 48.9 °F - 19.0 °F 31% 30.30 in 10.0 mi WNW 5.8 mph - N/A   Partly Cloudy
8:51 PM 44.1 °F 40.1 °F 21.0 °F 40% 30.31 in 10.0 mi West 6.9 mph - N/A   Clear
9:51 PM 41.0 °F - 23.0 °F 49% 30.31 in 10.0 mi Calm Calm - N/A   Clear
10:51 PM 43.0 °F - 23.0 °F 45% 30.32 in 10.0 mi Calm Calm - N/A   Clear
11:51 PM 39.0 °F 35.7 °F 24.1 °F 55% 30.32 in 10.0 mi WSW 4.6 mph - N/A   Clear